This demonstration page uses our WeatherBlox Daily Observations layout. Learn more.

Left ArrowRight Arrow

Hourly Observations for December 15, 2021

Temp ( °F °C ) Dew Point ( °F °C ) Humidity (%) Winds ( mph kmh ) Pressure ( in mb ) Visibility ( mi km ) Precip ( " mm )
12:56 am 00:56 Clear 37 2.8 33 0.6 86 86 SSW 10 17 29.62 1003 10 16 0.00 0.00
1:56 am 01:56 Clear 42 5.6 31 -0.6 65 65 SSW 12 19 29.58 1002 10 16 0.00 0.00
2:56 am 02:56 Clear 44 6.7 31 -0.6 60 60 SW 9 15 29.59 1002 10 16 0.00 0.00
3:56 am 03:56 Clear 44 6.7 30 -1.1 58 58 SSW 5 7 29.59 1002 10 16 0.00 0.00
4:56 am 04:56 Clear 42 5.6 30 -1.1 62 62 Calm 29.57 1002 10 16 0.00 0.00
5:56 am 05:56 Clear 47 8.3 33 0.6 59 59 SSW 15 24 29.55 1001 10 16 0.00 0.00
6:56 am 06:56 Clear 47 8.3 33 0.6 59 59 SSW 14 22 29.54 1000 10 16 0.00 0.00
7:56 am 07:56 Sunny 48 8.9 33 0.6 56 56 S 13 20 29.52 1000 10 16 0.00 0.00
8:56 am 08:56 Sunny 49 9.4 34 1.1 56 56 S 10 17 29.48 998 10 16 0.00 0.00
9:56 am 09:56 Sunny 55 12.8 33 0.6 44 44 S 23 37 29.44 997 10 16 0.00 0.00
10:56 am 10:56 Sunny 60 15.6 34 1.1 38 38 S 31 50 29.38 995 10 16 0.00 0.00
11:56 am 11:56 Sunny 63 17.2 45 7.2 52 52 S 35 56 29.30 992 10 16 0.00 0.00
12:56 pm 12:56 Mostly Sunny 66 18.9 50 10 56 56 S 33 54 29.23 990 10 16 0.00 0.00
1:42 pm 13:42 Partly Cloudy with Nearby Thunderstorms 63 17 52 11 68 68 undefined N/A N/A N/A 0.00 0.00
1:56 pm 13:56 Partly Cloudy with Nearby Thunderstorms N/A N/A N/A undefined N/A N/A N/A 0.00 0.00
2:03 pm 14:03 undefined N/A N/A N/A undefined N/A N/A N/A 0.00 0.00
5:56 pm 17:56 Mostly Clear with Light Wintry Mix 32 0 28 -2.2 85 85 WNW 33 54 29.58 1002 4 6 0.00 0.00
6:23 pm 18:23 Cloudy 32 0 27 -3 80 80 WNW 29 46 29.65 1004 10 16 0.00 0.00
6:56 pm 18:56 Mostly Cloudy 30 -1.1 24 -4.4 79 79 NW 33 54 29.61 1003 9 14 0.00 0.00
7:06 pm 19:06 Mostly Clear 30 -1 23 -5 75 75 NW 36 57 29.66 1004 10 16 0.00 0.00
7:56 pm 19:56 Mostly Cloudy 30 -1.1 22 -5.6 72 72 WNW 21 33 29.78 1008 10 16 0.00 0.00
8:56 pm 20:56 Mostly Clear 30 -1.1 21 -6.1 69 69 WNW 23 37 29.85 1011 10 16 0.00 0.00
9:56 pm 21:56 Clear 30 -1.1 22 -5.6 72 72 WNW 20 31 29.91 1013 10 16 0.00 0.00
10:56 pm 22:56 Clear 30 -1.1 23 -5 75 75 WNW 18 30 29.95 1014 10 16 0.00 0.00
11:56 pm 23:56 Clear 31 -0.6 23 -5 72 72 NW 16 26 29.95 1014 10 16 0.00 0.00

Powered by AerisWeather